GLO1622 SBBR-SBCF

Flight info

Callsign GLO1622
Flight time N/A
Altitude 33000
Route GEPMO UZ35 REINA
Aircraft B738/M-SDFGIKLORWXY/LB1

Departure

Time 2026-05-07 21:49
Airport Presidente Juscelino Kubitschek International Airport (SBBR)

Arrival

Time N/A
Airport Tancredo Neves International Airport (SBCF)
Time Latitude Longitude Altitude Speed Heading
2026-05-07 21:22 -15.86854 -47.91875 3487 ft 0 kts 356°
2026-05-07 21:36 -15.86861 -47.91874 3487 ft 2 kts 356°
2026-05-07 21:37 -15.86872 -47.91874 3487 ft 1 kts 356°
2026-05-07 21:37 -15.86886 -47.91871 3487 ft 2 kts 335°
2026-05-07 21:37 -15.86899 -47.91862 3487 ft 2 kts 316°
2026-05-07 21:37 -15.86908 -47.91850 3487 ft 2 kts 296°
2026-05-07 21:38 -15.86913 -47.91836 3487 ft 2 kts 277°
2026-05-07 21:38 -15.86913 -47.91827 3487 ft 1 kts 266°
2026-05-07 21:38 -15.86913 -47.91821 3487 ft 0 kts 266°
2026-05-07 21:41 -15.86913 -47.91822 3487 ft 0 kts 266°
2026-05-07 21:42 -15.86913 -47.91828 3487 ft 5 kts 266°
2026-05-07 21:42 -15.86942 -47.91923 3487 ft 18 kts 211°
2026-05-07 21:42 -15.87071 -47.91921 3486 ft 17 kts 144°
2026-05-07 21:43 -15.87083 -47.91801 3485 ft 17 kts 83°
2026-05-07 21:43 -15.87100 -47.91690 3484 ft 16 kts 153°
2026-05-07 21:43 -15.87216 -47.91672 3482 ft 17 kts 172°
2026-05-07 21:43 -15.87309 -47.91705 3483 ft 14 kts 256°
2026-05-07 21:44 -15.87271 -47.91761 3483 ft 12 kts 41°
2026-05-07 21:44 -15.87211 -47.91689 3482 ft 13 kts 33°
2026-05-07 21:44 -15.87115 -47.91683 3484 ft 15 kts 356°
2026-05-07 21:44 -15.86988 -47.91691 3485 ft 20 kts 356°
2026-05-07 21:45 -15.86824 -47.91700 3487 ft 26 kts 358°
2026-05-07 21:45 -15.86619 -47.91707 3486 ft 32 kts 359°
2026-05-07 21:45 -15.86515 -47.91795 3484 ft 17 kts 294°
2026-05-07 21:45 -15.86496 -47.91940 3483 ft 23 kts 265°
2026-05-07 21:46 -15.86507 -47.92128 3482 ft 28 kts 266°
2026-05-07 21:46 -15.86521 -47.92351 3480 ft 31 kts 267°
2026-05-07 21:46 -15.86537 -47.92562 3478 ft 27 kts 262°
2026-05-07 21:46 -15.86548 -47.92735 3475 ft 13 kts 271°
2026-05-07 21:47 -15.86494 -47.92766 3473 ft 10 kts 356°
2026-05-07 21:47 -15.86417 -47.92764 3472 ft 11 kts 18°
2026-05-07 21:47 -15.86358 -47.92714 3472 ft 10 kts 63°
2026-05-07 21:47 -15.86347 -47.92645 3473 ft 9 kts 83°
2026-05-07 21:48 -15.86334 -47.92475 3476 ft 53 kts 86°
2026-05-07 21:48 -15.86292 -47.91861 3481 ft 116 kts 86°
2026-05-07 21:48 -15.86224 -47.90826 3492 ft 169 kts 85°
2026-05-07 21:48 -15.86134 -47.89502 3765 ft 191 kts 85°
2026-05-07 21:49 -15.86069 -47.88180 4649 ft 176 kts 91°
2026-05-07 21:49 -15.86503 -47.87012 4961 ft 186 kts 132°
2026-05-07 21:49 -15.87605 -47.86232 5185 ft 199 kts 152°
2026-05-07 21:49 -15.88971 -47.85748 5412 ft 212 kts 167°
2026-05-07 21:50 -15.90510 -47.85702 5560 ft 230 kts 184°
2026-05-07 21:50 -15.92172 -47.85813 5743 ft 245 kts 179°
2026-05-07 21:50 -15.93937 -47.85751 5890 ft 262 kts 173°
2026-05-07 21:50 -15.95816 -47.85564 6091 ft 277 kts 172°
2026-05-07 21:51 -15.97762 -47.85345 6342 ft 289 kts 172°
2026-05-07 21:51 -15.99805 -47.85128 6788 ft 297 kts 172°
2026-05-07 21:51 -16.01852 -47.84921 7496 ft 298 kts 172°
2026-05-07 21:51 -16.03931 -47.84717 8227 ft 299 kts 173°
2026-05-07 21:52 -16.05999 -47.84450 8801 ft 303 kts 166°
2026-05-07 21:52 -16.07976 -47.83684 9136 ft 305 kts 144°
2026-05-07 21:52 -16.09596 -47.82335 9896 ft 300 kts 134°
2026-05-07 21:52 -16.11119 -47.80840 10534 ft 304 kts 133°
2026-05-07 21:53 -16.12698 -47.79280 10872 ft 320 kts 134°
2026-05-07 21:53 -16.14373 -47.77679 11227 ft 334 kts 135°
2026-05-07 21:53 -16.16155 -47.76024 11541 ft 349 kts 136°
2026-05-07 21:53 -16.18009 -47.74329 12056 ft 357 kts 136°
2026-05-07 21:54 -16.19889 -47.72622 12654 ft 361 kts 136°
2026-05-07 21:54 -16.21768 -47.70913 13253 ft 365 kts 136°
2026-05-07 21:54 -16.23699 -47.69154 13943 ft 367 kts 136°
2026-05-07 21:54 -16.25608 -47.67410 14631 ft 368 kts 136°
2026-05-07 21:55 -16.27541 -47.65642 15297 ft 370 kts 137°
2026-05-07 21:55 -16.29472 -47.63873 15968 ft 371 kts 137°
2026-05-07 21:55 -16.31407 -47.62100 16605 ft 373 kts 137°
2026-05-07 21:55 -16.33356 -47.60313 17219 ft 375 kts 137°
2026-05-07 21:56 -16.35317 -47.58517 17816 ft 378 kts 137°
2026-05-07 21:56 -16.37286 -47.56712 18406 ft 380 kts 137°
2026-05-07 21:56 -16.39287 -47.54877 19016 ft 381 kts 137°
2026-05-07 21:56 -16.41260 -47.53067 19538 ft 385 kts 137°
2026-05-07 21:57 -16.43283 -47.51212 20089 ft 387 kts 138°
2026-05-07 21:57 -16.45314 -47.49349 20621 ft 390 kts 138°
2026-05-07 21:57 -16.47356 -47.47475 21172 ft 391 kts 138°
2026-05-07 21:57 -16.49406 -47.45594 21656 ft 395 kts 138°
2026-05-07 21:58 -16.51466 -47.43703 22254 ft 395 kts 139°
2026-05-07 21:58 -16.53514 -47.41821 22694 ft 399 kts 139°
2026-05-07 21:58 -16.55601 -47.39903 23163 ft 402 kts 139°
2026-05-07 21:58 -16.57705 -47.37968 23639 ft 405 kts 139°
2026-05-07 21:59 -16.59828 -47.36016 24157 ft 407 kts 139°
2026-05-07 21:59 -16.61970 -47.34046 24601 ft 410 kts 139°
2026-05-07 21:59 -16.64116 -47.32073 25084 ft 412 kts 139°
2026-05-07 21:59 -16.66249 -47.30108 25492 ft 415 kts 139°
2026-05-07 22:00 -16.68427 -47.28104 25920 ft 418 kts 139°
2026-05-07 22:00 -16.70634 -47.26071 26276 ft 423 kts 139°
2026-05-07 22:00 -16.72848 -47.24031 26687 ft 426 kts 139°
2026-05-07 22:00 -16.75068 -47.21986 27058 ft 429 kts 140°
2026-05-07 22:01 -16.77310 -47.19920 27441 ft 432 kts 140°
2026-05-07 22:01 -16.79583 -47.17823 27858 ft 434 kts 140°
2026-05-07 22:01 -16.81842 -47.15740 28198 ft 438 kts 140°
2026-05-07 22:01 -16.84136 -47.13623 28616 ft 439 kts 140°
2026-05-07 22:02 -16.86407 -47.11515 29192 ft 437 kts 140°
2026-05-07 22:02 -16.88644 -47.09392 29808 ft 434 kts 139°
2026-05-07 22:02 -16.90845 -47.07267 30435 ft 430 kts 139°
2026-05-07 22:02 -16.93027 -47.05147 31002 ft 426 kts 139°
2026-05-07 22:03 -16.95165 -47.03066 31594 ft 422 kts 139°
2026-05-07 22:03 -16.97320 -47.00969 32203 ft 417 kts 140°
2026-05-07 22:03 -16.99431 -46.98916 32672 ft 414 kts 140°
2026-05-07 22:03 -17.01527 -46.96883 33068 ft 413 kts 140°
2026-05-07 22:04 -17.05805 -46.92748 33074 ft 420 kts 140°
2026-05-07 22:04 -17.10082 -46.88611 33067 ft 418 kts 140°
2026-05-07 22:05 -17.14362 -46.84467 33058 ft 419 kts 140°
2026-05-07 22:05 -17.18630 -46.80331 33054 ft 419 kts 140°
2026-05-07 22:06 -17.22888 -46.76185 33062 ft 419 kts 140°
2026-05-07 22:06 -17.27167 -46.72013 33069 ft 419 kts 140°
2026-05-07 22:07 -17.31411 -46.67870 33068 ft 418 kts 140°
2026-05-07 22:07 -17.35680 -46.63700 33062 ft 417 kts 140°
2026-05-07 22:08 -17.39933 -46.59546 33058 ft 418 kts 140°
2026-05-07 22:08 -17.44162 -46.55412 33056 ft 417 kts 140°
2026-05-07 22:09 -17.48440 -46.51230 33055 ft 419 kts 140°
2026-05-07 22:09 -17.52677 -46.47083 33053 ft 419 kts 140°
2026-05-07 22:10 -17.56927 -46.42921 33054 ft 419 kts 140°
2026-05-07 22:10 -17.61200 -46.38732 33055 ft 417 kts 140°
2026-05-07 22:11 -17.65438 -46.34575 33055 ft 419 kts 140°
2026-05-07 22:11 -17.69674 -46.30415 33056 ft 417 kts 140°
2026-05-07 22:12 -17.73938 -46.26228 33064 ft 417 kts 140°
2026-05-07 22:12 -17.78156 -46.22082 33070 ft 418 kts 140°
2026-05-07 22:13 -17.82413 -46.17895 33077 ft 417 kts 140°
2026-05-07 22:13 -17.86626 -46.13749 33086 ft 418 kts 140°
2026-05-07 22:14 -17.90870 -46.09573 33093 ft 418 kts 140°
2026-05-07 22:14 -17.95111 -46.05394 33106 ft 419 kts 140°
2026-05-07 22:15 -17.99369 -46.01192 33115 ft 417 kts 140°
2026-05-07 22:15 -18.03583 -45.97031 33119 ft 416 kts 140°
2026-05-07 22:16 -18.07794 -45.92871 33125 ft 417 kts 140°
2026-05-07 22:16 -18.12041 -45.88672 33122 ft 416 kts 140°
2026-05-07 22:17 -18.16264 -45.84493 33120 ft 416 kts 140°
2026-05-07 22:17 -18.20474 -45.80324 33118 ft 417 kts 140°
2026-05-07 22:18 -18.26783 -45.74075 33112 ft 415 kts 140°
2026-05-07 22:19 -18.30980 -45.69914 33113 ft 415 kts 140°
2026-05-07 22:19 -18.35175 -45.65751 33111 ft 416 kts 140°
2026-05-07 22:20 -18.39390 -45.61565 33109 ft 416 kts 140°
2026-05-07 22:20 -18.43538 -45.57352 33108 ft 417 kts 137°
2026-05-07 22:21 -18.47294 -45.52648 33099 ft 419 kts 132°
2026-05-07 22:21 -18.50799 -45.47783 33095 ft 419 kts 131°
2026-05-07 22:22 -18.54295 -45.42886 33088 ft 408 kts 131°
2026-05-07 22:22 -18.55971 -45.40547 32901 ft 399 kts 131°
2026-05-07 22:22 -18.57650 -45.38215 32541 ft 393 kts 131°
2026-05-07 22:22 -18.59305 -45.35930 32112 ft 396 kts 132°
2026-05-07 22:23 -18.60990 -45.33614 31653 ft 401 kts 131°
2026-05-07 22:23 -18.62693 -45.31275 31182 ft 399 kts 131°
2026-05-07 22:23 -18.64368 -45.28970 30716 ft 395 kts 131°
2026-05-07 22:23 -18.66020 -45.26695 30254 ft 391 kts 131°
2026-05-07 22:24 -18.67675 -45.24416 29792 ft 387 kts 131°
2026-05-07 22:24 -18.69305 -45.22174 29333 ft 383 kts 130°
2026-05-07 22:24 -18.70916 -45.19955 28879 ft 380 kts 130°
2026-05-07 22:24 -18.72508 -45.17762 28426 ft 377 kts 130°
2026-05-07 22:25 -18.74079 -45.15596 27973 ft 373 kts 130°
2026-05-07 22:25 -18.75658 -45.13421 27507 ft 370 kts 130°
2026-05-07 22:25 -18.77214 -45.11275 27054 ft 367 kts 129°
2026-05-07 22:25 -18.78755 -45.09150 26596 ft 365 kts 129°
2026-05-07 22:26 -18.80286 -45.07039 26144 ft 362 kts 129°
2026-05-07 22:26 -18.81819 -45.04924 25686 ft 359 kts 129°
2026-05-07 22:26 -18.83313 -45.02861 25240 ft 356 kts 129°
2026-05-07 22:26 -18.84811 -45.00793 24792 ft 353 kts 129°
2026-05-07 22:27 -18.86299 -44.98738 24344 ft 351 kts 129°
2026-05-07 22:27 -18.87773 -44.96703 23900 ft 348 kts 129°
2026-05-07 22:27 -18.89236 -44.94680 23459 ft 345 kts 128°
2026-05-07 22:27 -18.90685 -44.92677 23018 ft 343 kts 128°
2026-05-07 22:28 -18.92127 -44.90683 22583 ft 340 kts 128°
2026-05-07 22:28 -18.93550 -44.88714 22161 ft 337 kts 128°
2026-05-07 22:28 -18.94971 -44.86748 21740 ft 335 kts 128°
2026-05-07 22:28 -18.96378 -44.84800 21314 ft 335 kts 128°
2026-05-07 22:29 -18.97800 -44.82831 20882 ft 340 kts 127°
2026-05-07 22:29 -18.99237 -44.80839 20446 ft 340 kts 127°
2026-05-07 22:29 -19.00661 -44.78867 20013 ft 338 kts 127°
2026-05-07 22:29 -19.02080 -44.76899 19580 ft 336 kts 127°
2026-05-07 22:30 -19.03489 -44.74946 19150 ft 334 kts 126°
2026-05-07 22:30 -19.04902 -44.72986 18722 ft 332 kts 126°
2026-05-07 22:30 -19.06298 -44.71047 18300 ft 330 kts 126°
2026-05-07 22:30 -19.07676 -44.69132 17883 ft 328 kts 126°
2026-05-07 22:31 -19.09042 -44.67235 17476 ft 326 kts 126°
2026-05-07 22:31 -19.10405 -44.65340 17072 ft 324 kts 125°
2026-05-07 22:31 -19.11779 -44.63431 16662 ft 322 kts 125°
2026-05-07 22:31 -19.13133 -44.61549 16245 ft 320 kts 125°
2026-05-07 22:32 -19.14478 -44.59678 15846 ft 318 kts 125°
2026-05-07 22:32 -19.15814 -44.57820 15446 ft 317 kts 125°
2026-05-07 22:32 -19.17139 -44.55976 15048 ft 315 kts 125°
2026-05-07 22:32 -19.18453 -44.54146 14655 ft 313 kts 124°
2026-05-07 22:33 -19.19768 -44.52317 14262 ft 312 kts 124°
2026-05-07 22:33 -19.21079 -44.50492 13875 ft 310 kts 124°
2026-05-07 22:33 -19.22386 -44.48672 13482 ft 309 kts 124°
2026-05-07 22:33 -19.23686 -44.46860 13089 ft 307 kts 124°
2026-05-07 22:34 -19.24974 -44.45067 12695 ft 306 kts 124°
2026-05-07 22:34 -19.26257 -44.43277 12303 ft 305 kts 124°
2026-05-07 22:34 -19.27527 -44.41507 11917 ft 303 kts 124°
2026-05-07 22:34 -19.28798 -44.39732 11535 ft 302 kts 124°
2026-05-07 22:35 -19.30055 -44.37978 11151 ft 300 kts 124°
2026-05-07 22:35 -19.31325 -44.36203 10764 ft 299 kts 123°
2026-05-07 22:35 -19.32418 -44.34350 10379 ft 294 kts 112°
2026-05-07 22:35 -19.33178 -44.32367 10093 ft 287 kts 105°
2026-05-07 22:36 -19.33782 -44.30399 9896 ft 279 kts 104°
2026-05-07 22:36 -19.34359 -44.28453 9512 ft 279 kts 104°
2026-05-07 22:36 -19.34958 -44.26510 9184 ft 277 kts 105°
2026-05-07 22:36 -19.35571 -44.24604 8929 ft 272 kts 105°
2026-05-07 22:37 -19.36196 -44.22719 8567 ft 268 kts 107°
2026-05-07 22:37 -19.37029 -44.20960 8221 ft 266 kts 122°
2026-05-07 22:37 -19.38318 -44.19579 7896 ft 263 kts 137°
2026-05-07 22:37 -19.39753 -44.18404 7659 ft 253 kts 139°
2026-05-07 22:38 -19.41095 -44.17314 7572 ft 237 kts 138°
2026-05-07 22:38 -19.42356 -44.16242 7505 ft 222 kts 137°
2026-05-07 22:38 -19.43495 -44.15236 7404 ft 206 kts 135°
2026-05-07 22:38 -19.44565 -44.14257 7106 ft 199 kts 135°
2026-05-07 22:39 -19.45568 -44.13322 6843 ft 184 kts 134°
2026-05-07 22:39 -19.46502 -44.12456 6582 ft 174 kts 134°
2026-05-07 22:39 -19.47405 -44.11619 6390 ft 171 kts 134°
2026-05-07 22:39 -19.48294 -44.10798 6240 ft 165 kts 134°
2026-05-07 22:40 -19.49167 -44.09991 6099 ft 168 kts 134°
2026-05-07 22:40 -19.50050 -44.09175 5917 ft 167 kts 134°
2026-05-07 22:40 -19.50921 -44.08375 5683 ft 166 kts 135°